Location: Antioch Church
(34.9543°N, 88.5145°W)
Time: 14:16:09
(UTC+00:00)

Centaur AC-42 - Pass Details

Date: 11 December 2019
Orbit: 624 x 36264 km, 20.7° (Epoch: 24 January)

Event Time Altitude Azimuth Distance (km) Brightness Sun altitude
Exits shadow 10:09:28 22° 194° (SSW) 2,376 4.4 -32.4°
Maximum altitude 10:12:54 32° 150° (SSE) 2,749 5.0 -31.7°
Drops below altitude 10° 10:34:19 10° 96° (E) 10,476 8.7 -27.4°
Sets 11:07:24 0° 91° (E) 19,628 10.6 -20.7°
